Home > Weather > Vellore > Past weeks

Flag for India Weather for the Past 2 Weeks in Vellore, Tamil Nadu, India

Now
88 °F

Scattered clouds.


Feels Like: 94 °F
Forecast: 71 / 92 °F
Wind: 7 mph from East

Location: Madras / Minambakkam

Current Time: Feb 7, 2016 at 2:09:35 PM

Latest Report: Feb 7, 2016 at 1:30 PM


Visibility: 4 mi

Pressure: 29.86 "Hg

Humidity: 59%

Dew point: 72 °F

Location of VelloreLocation

Historic Weather in Vellore — Graph

°F

Vellore Temperature Yesterday

Maximum temperature yesterday: 86 °F (at 11:00 AM)
Minimum temperature yesterday: 73 °F (at 5:00 AM)
Average temperature yesterday: 79 °F

High & Low Weather Summary for the Past Weeks

 TemperatureHumidityPressure
High91 °F (Jan 30, 1:30 PM)100% (Feb 1, 6:30 AM)30.04 "Hg (Feb 1, 6:30 AM)
Low68 °F (Feb 2, 6:30 AM)30% (Feb 2, 1:30 PM)29.80 "Hg (Feb 6, 3:30 PM)
Average80 °F72%29.91 "Hg
* Reported Jan 23 12:30 PM — Feb 7 1:00 PM, Vellore, Weather by CustomWeather, © 2016

Note: Actual official high and low records may vary slightly from our data, if they occured in-between our weather recording intervals... More about our weather records

Advertising

Vellore Weather History for the Previous 24 Hours

 ConditionsComfort  
Time TempWeatherWind HumidityBarometerVisibility
1:00 PM
Sun, Feb 7
88 °FScattered clouds.7 mph55%29.89 "Hg4 mi
12:30 PM90 °FScattered clouds.7 mph52%29.92 "Hg4 mi
12:00 PM88 °FScattered clouds.2 mph55%29.92 "Hg4 mi
11:30 AM86 °FScattered clouds.5 mph59%29.95 "Hg4 mi
11:00 AM86 °FScattered clouds.6 mph59%29.95 "Hg4 mi
10:30 AM86 °FScattered clouds.7 mph59%29.98 "Hg3 mi
10:00 AM84 °FScattered clouds.7 mph62%29.98 "Hg3 mi
9:30 AM84 °FHaze.No wind62%29.98 "Hg2 mi
9:00 AM81 °FFog.No wind74%29.95 "Hg1 mi
2:00 AM73 °FFog.No wind89%29.86 "Hg3 mi
1:30 AM73 °FFog.No wind89%29.86 "Hg3 mi
1:00 AM75 °FHaze.No wind83%29.86 "Hg3 mi
12:30 AM75 °FHaze.No wind83%29.89 "Hg3 mi
12:00 AM75 °FHaze.5 mph83%29.89 "Hg3 mi
11:30 PM
Sat, Feb 6
75 °FHaze.No wind83%29.89 "Hg3 mi
11:00 PM75 °FHaze.No wind89%29.92 "Hg3 mi
10:30 PM75 °FHaze.No wind83%29.92 "Hg3 mi
10:00 PM75 °FHaze.No wind83%29.92 "Hg3 mi
9:30 PM75 °FHaze.No wind83%29.89 "Hg3 mi
9:00 PM77 °FPassing clouds.3 mph79%29.89 "Hg4 mi
8:30 PM77 °FPassing clouds.3 mph79%29.89 "Hg4 mi
8:00 PM79 °FPassing clouds.3 mph74%29.86 "Hg4 mi
7:30 PM79 °FPassing clouds.6 mph74%29.83 "Hg4 mi
7:00 PM79 °FPassing clouds.9 mph74%29.83 "Hg4 mi
6:00 PM81 °FPassing clouds.9 mph70%29.83 "Hg4 mi
5:30 PM82 °FScattered clouds.9 mph66%29.83 "Hg4 mi
5:00 PM82 °FScattered clouds.7 mph66%29.80 "Hg4 mi
4:30 PM82 °FScattered clouds.9 mph66%29.80 "Hg4 mi
4:00 PM82 °FScattered clouds.9 mph62%29.80 "Hg4 mi
3:30 PM84 °FScattered clouds.6 mph58%29.80 "Hg4 mi
3:00 PM84 °FScattered clouds.7 mph58%29.83 "Hg4 mi
2:30 PM86 °FScattered clouds.9 mph55%29.83 "Hg4 mi
2:00 PM86 °FScattered clouds.7 mph55%29.83 "Hg4 mi
Weather by CustomWeather, © 2016

See weather overviewHow to use our weather pages